Regional Weather Roundup
Issued by NWS

Home | Current Version | Previous Version | Text Only | Print | Product List | Glossary On
Versions: 1 2 3 4 5 6 7 8 9 10 11 12 13 14 15 16 17 18 19 20 21 22 23 24 25 26 27 28 29 30 31 32 33 34 35 36 37 38 39 40 41 42 43 44 45 46 47 48 49 50
000
ASUS45 KBOU 150407
RWRCO

WEATHER ROUNDUP FOR COLORADO
NATIONAL WEATHER SERVICE DENVER/BOULDER CO
1000 PM MDT SUN SEP 14 2014

NOTE: "FAIR" INDICATES FEW OR NO CLOUDS BELOW 12000 FEET WITH NO
SIGNIFICANT WEATHER AND/OR OBSTRUCTIONS TO VISIBILITY.

COZ001>005-013-030-031-150500-
...NORTHWEST COLORADO...

CITY           SKY/WX    TMP DP  RH WIND       PRES   REMARKS
CRAIG          MOCLDY    58  41  53 CALM      30.19R
HAYDEN         MOCLDY    61  34  36 NE3       30.21R
MEEKER         PTCLDY    54  41  61 N3        30.21R
MOUNT WERNER   NOT AVBL
STEAMBOAT SPGS MOCLDY    57  39  51 SE9       30.22S
WALDEN         PTCLDY    54  30  40 SW5       30.29S
$$

COZ006>008-011-150500-
...WEST CENTRAL VALLEYS...

CITY           SKY/WX    TMP DP  RH WIND       PRES   REMARKS
GRAND JUNCTION PTCLDY    67  37  33 E9        30.06R
MONTROSE       PTCLDY    65  43  44 SE9       30.18R
EAGLE          PTCLDY    59  41  51 E7        30.24R
RIFLE          PTCLDY    63  38  39 E10       30.14R
DELTA          PTCLDY    67  39  35 E5        30.12R
NUCLA          PTCLDY    64  41  42 E12       30.20R
$$

COZ017>023-064>068-150500-
...SOUTHWEST COLORADO...

CITY           SKY/WX    TMP DP  RH WIND       PRES   REMARKS
DURANGO        CLEAR     62  37  39 NW5       30.22R
CORTEZ         CLEAR     59  45  59 NE7       30.18R
PAGOSA SPRINGS NOT AVBL
TELLURIDE      CLEAR     54  39  58 SE5       30.41R
WOLF CREEK PAS PTCLDY    45  32  61 NE6       30.61R
$$

COZ009-010-012-014-032>034-037-058>063-150500-
...CENTRAL COLORADO...

CITY           SKY/WX    TMP DP  RH WIND       PRES   REMARKS
ASPEN          CLEAR     52  37  56 S8        30.31S
BUENA VISTA    CLEAR     58  33  39 NW8       30.32R
COPPER MTN     CLEAR     48  28  46 W15G23    30.59S
BERTHOUD PASS  FAIR      41  37  87 W18G25    30.62S
COTTONWOOD PAS CLEAR     59  27  29 W7        30.45R
GUNNISON       CLEAR     54  36  50 NW6       30.33R
KREMMLING      PTCLDY    52  34  50 CALM      30.29R
LEADVILLE      CLEAR     42  30  62 CALM      30.45R
MONARCH PASS   CLEAR     46  28  49 NW8       30.70R
SALIDA         PTCLDY    59  32  36 W9        30.37R
SUNLIGHT       CLEAR     50  30  46 CALM      30.53S
WILKERSON PASS NOT AVBL
$$

COZ069>075-150500-
...SAN LUIS VALLEY/SANGRE DE CRISTO MOUNTAINS...

CITY           SKY/WX    TMP DP  RH WIND       PRES   REMARKS
ALAMOSA        CLOUDY    60  40  47 CALM      30.28R
LA VETA PASS   NOT AVBL
SAGUACHE       NOT AVBL
$$

COZ035-036-038>040-150500-
...NORTHERN COLORADO FRONT RANGE...

CITY           SKY/WX    TMP DP  RH WIND       PRES   REMARKS
DENVER INTL AP CLOUDY    63  43  48 SE9       30.12R
DMNS CITY PARK   N/A     60  52  75 E2        30.12R
AURORA         MOCLDY    66  43  43 SE9       30.15R
FRONT RANGE AP CLOUDY    64  45  48 SE8       30.13R
ERIE MUNI ARPT MOCLDY    61  45  55 SW8       30.09R
BOULDER MUN AP MOCLDY    66  37  34 SW6       30.10R
CENTENNIAL     MOCLDY    69  39  33 S6        30.16R
BROOMFIELD     PTCLDY    64  39  39 SW7       30.13
FORT COLLINS   MOCLDY    64  45  48 NE15      30.11R
LONGMONT       MOCLDY    65  42  44 NW8       30.11R
$$

COZ041-046-047-076>085-087-088-150500-
...PIKES PEAK/PALMER DIVIDE AND SOUTHERN FOOTHILLS...

CITY           SKY/WX    TMP DP  RH WIND       PRES   REMARKS
COLO. SPRINGS  MOCLDY    67  34  29 N6        30.18R
A. F. ACADEMY  MOCLDY    65  37  34 N8        30.20R
ELLICOTT       NOT AVBL
FALCON         MOCLDY    62  34  35 N8        30.24R
FORT CARSON    MOCLDY    65  36  33 NW10      30.14R
LIMON          MOCLDY    65  40  39 N12       30.13R
MONUMENT HILL  CLOUDY    61  36  39 NE3       30.24R
TRINIDAD       PTCLDY    67  50  54 W15       30.13R
$$

COZ042>045-048>051-090-091-150500-
...NORTHEAST COLORADO...

CITY           SKY/WX    TMP DP  RH WIND       PRES   REMARKS
GREELEY ARPT   MOCLDY    61  46  59 NE14      30.10R
AKRON          MOCLDY    64  55  72 S10       30.06R
BURLINGTON     MOCLDY    72  49  44 NE7       30.05R
WRAY           MOCLDY    66  58  77 N8        30.02R
STERLING       MOCLDY    61  55  82 N8        30.02F
HOLYOKE        MOCLDY    61  55  82 NE6       30.03R
FORT MORGAN    MOCLDY    61  50  66 N12       30.06R
$$

COZ086-089-092>099-150500-
...SOUTHEAST COLORADO...

CITY           SKY/WX    TMP DP  RH WIND       PRES   REMARKS
PUEBLO         PTCLDY    62  34  35 N6        30.03R
LA JUNTA       CLEAR     75  53  46 S13       30.01R
LAMAR          CLEAR     70  55  59 S12       29.98R
SPRINGFIELD      N/A     65  56  72 S14       30.07S
$$



USA.gov is the U.S. government's official web portal to all federal, state and local government web resources and services.